Location: Diebersbach
(48.5163°N, 8.0558°E)
Time: 08:36:28
(UTC+00:00)

Cosmos 1633 - Visible Passes

Search period start: 28 October 2021 00:00
Search period end: 07 November 2021 00:00
Orbit: 460 x 474 km, 82.5° (Epoch: 27 October)

Date Brightness Start Highest point End Pass type
(mag) Time Alt. Az. Time Alt. Az. Time Alt. Az.
28 Oct 5.1 18:31:52 10° N 18:32:13 12° N 18:32:13 12° N visible
29 Oct 4.7 18:01:58 10° N 18:02:40 14° NNE 18:02:40 14° NNE visible
30 Oct 4.6 17:32:21 10° NNE 17:33:13 14° NE 17:33:13 14° NE visible
30 Oct 5.3 19:06:30 10° NNW 19:07:15 15° NNW 19:07:15 15° NNW visible
31 Oct 4.6 17:03:26 10° NE 17:03:52 11° NE 17:03:52 11° NE visible
31 Oct 4.3 18:36:10 10° NNW 18:37:55 26° NNW 18:37:55 26° NNW visible
01 Nov 3.0 18:06:01 10° N 18:08:45 47° NNE 18:08:45 47° NNE visible
02 Nov 3.0 17:36:03 10° N 17:39:24 36° ENE 17:39:54 34° E visible
02 Nov 5.4 19:11:29 10° NW 19:13:51 17° W 19:14:00 17° W visible
03 Nov 3.8 17:06:19 10° NNE 17:09:08 21° ENE 17:11:44 11° ESE visible
03 Nov 4.5 18:40:43 10° NNW 18:43:52 29° W 18:45:55 17° SW visible
04 Nov 4.4 16:37:03 10° NE 16:38:45 13° ENE 16:40:26 10° E visible
04 Nov 3.2 18:10:18 10° NNW 18:13:49 53° W 18:17:18 10° S visible
05 Nov 2.3 17:40:04 10° N 17:43:42 80° E 17:47:15 10° SSE visible
06 Nov 2.8 17:10:02 10° N 17:13:28 42° ENE 17:16:53 10° SSE visible
06 Nov 5.7 18:45:47 10° NW 18:47:49 15° W 18:49:50 10° WSW visible
